• In Russia
  • List of Countries
  • For 7 days
  • Water Temperature
  • Satellite Maps
  • Weather Map
  • Weather Widgets
  • user-avatar
    Login

    Hourly Weather Mansa

    Today, 24 January, Thursday

    Time Temperature Precipitation Wind Pressure Humidity
    00:00 +21°C° 0.1 mm 1 mps 659 mmHg 95%
    01:00 +21°C° 0.1 mm 1 mps 659 mmHg 95%
    02:00 +20°C° 0.1 mm 1 mps 659 mmHg 95%
    03:00 +20°C° 0 mm 1 mps 659 mmHg 96%
    04:00 +20°C° 0 mm 1 mps 659 mmHg 97%
    05:00 +19°C° 0 mm 1 mps 659 mmHg 98%
    06:00 +20°C° 0 mm 1 mps 659 mmHg 94%
    07:00 +20°C° 0 mm 2 mps 660 mmHg 90%
    08:00 +21°C° 0 mm 2 mps 660 mmHg 86%
    09:00 +24°C° 0 mm 3 mps 661 mmHg 80%
    10:00 +25°C° 0 mm 3 mps 661 mmHg 74%
    11:00 +26°C° 0 mm 4 mps 661 mmHg 68%
    12:00 +27°C° 0.3 mm 4 mps 660 mmHg 69%
    13:00 +27°C° 0.3 mm 4 mps 660 mmHg 70%
    14:00 +27°C° 0.3 mm 4 mps 659 mmHg 71%
    15:00 +27°C° 0.6 mm 3 mps 659 mmHg 75%
    16:00 +26°C° 0.6 mm 2 mps 658 mmHg 79%
    17:00 +26°C° 0.6 mm 2 mps 658 mmHg 83%
    18:00 +24°C° 0.2 mm 2 mps 658 mmHg 87%
    19:00 +23°C° 0.2 mm 1 mps 658 mmHg 91%
    20:00 +22°C° 0.2 mm 1 mps 659 mmHg 94%
    21:00 +22°C° 0.8 mm 1 mps 659 mmHg 95%
    22:00 +21°C° 0.8 mm 1 mps 659 mmHg 95%
    23:00 +21°C° 0.8 mm 1 mps 660 mmHg 95%

    Tomorrow, 25 January, Friday

    Time Temperature Precipitation Wind Pressure Humidity
    00:00 +21°C° 0.5 mm 1 mps 659 mmHg 96%
    01:00 +20°C° 0.5 mm 1 mps 659 mmHg 97%
    02:00 +20°C° 0.5 mm 1 mps 659 mmHg 97%
    03:00 +20°C° 0.1 mm 1 mps 659 mmHg 97%
    04:00 +20°C° 0.1 mm 1 mps 659 mmHg 97%
    05:00 +20°C° 0.1 mm 1 mps 659 mmHg 97%
    06:00 +20°C° 0.1 mm 1 mps 659 mmHg 96%
    07:00 +21°C° 0.1 mm 1 mps 660 mmHg 95%
    08:00 +21°C° 0.1 mm 1 mps 661 mmHg 95%
    09:00 +22°C° 0.3 mm 1 mps 661 mmHg 93%
    10:00 +22°C° 0.3 mm 1 mps 661 mmHg 92%
    11:00 +23°C° 0.3 mm 1 mps 661 mmHg 90%
    12:00 +23°C° 0.3 mm 1 mps 661 mmHg 89%
    13:00 +23°C° 0.3 mm 1 mps 660 mmHg 87%
    14:00 +24°C° 0.3 mm 1 mps 659 mmHg 85%
    15:00 +24°C° 0.1 mm 1 mps 659 mmHg 86%
    16:00 +24°C° 0.1 mm 1 mps 659 mmHg 86%
    17:00 +24°C° 0.1 mm 1 mps 658 mmHg 86%
    18:00 +21°C° 0 mm 0 mps 659 mmHg 89%
    19:00 +20°C° 0 mm 0 mps 659 mmHg 91%
    20:00 +19°C° 0 mm 0 mps 659 mmHg 94%
    21:00 +19°C° 0.3 mm 0 mps 660 mmHg 94%
    22:00 +19°C° 0.3 mm 0 mps 660 mmHg 93%
    23:00 +19°C° 0.3 mm 0 mps 660 mmHg 93%

    Day after tomorrow, 26 January, Saturday

    Time Temperature Precipitation Wind Pressure Humidity
    00:00 +18°C° 0.6 mm 0 mps 660 mmHg 93%
    01:00 +18°C° 0.6 mm 0 mps 659 mmHg 94%
    02:00 +18°C° 0.6 mm 0 mps 659 mmHg 94%
    03:00 +18°C° 0.1 mm 0 mps 659 mmHg 94%
    04:00 +18°C° 0.1 mm 0 mps 659 mmHg 95%
    05:00 +18°C° 0.1 mm 0 mps 659 mmHg 95%
    06:00 +18°C° 0 mm 0 mps 659 mmHg 94%
    07:00 +19°C° 0 mm 0 mps 660 mmHg 93%
    08:00 +20°C° 0 mm 0 mps 661 mmHg 93%
    09:00 +21°C° 0.9 mm 0 mps 661 mmHg 90%
    10:00 +24°C° 0.9 mm 1 mps 661 mmHg 88%
    11:00 +25°C° 0.9 mm 1 mps 661 mmHg 85%
    12:00 +26°C° 0.4 mm 1 mps 660 mmHg 81%
    13:00 +26°C° 0.4 mm 1 mps 660 mmHg 77%
    14:00 +27°C° 0.4 mm 2 mps 659 mmHg 73%
    15:00 +27°C° 0.4 mm 2 mps 659 mmHg 76%
    16:00 +26°C° 0.4 mm 2 mps 659 mmHg 79%
    17:00 +26°C° 0.4 mm 1 mps 658 mmHg 82%
    18:00 +25°C° 1.7 mm 1 mps 658 mmHg 85%
    19:00 +23°C° 1.7 mm 1 mps 659 mmHg 88%
    20:00 +20°C° 1.7 mm 0 mps 659 mmHg 91%
    21:00 +19°C° 0.3 mm 0 mps 659 mmHg 92%
    22:00 +19°C° 0.3 mm 0 mps 660 mmHg 93%
    23:00 +21°C° 0.3 mm 1 mps 660 mmHg 94%

    27 January, Sunday

    Time Temperature Precipitation Wind Pressure Humidity
    00:00 +19°C° 0.8 mm 0 mps 659 mmHg 94%
    01:00 +18°C° 0.8 mm 0 mps 659 mmHg 95%
    02:00 +18°C° 0.8 mm 0 mps 658 mmHg 96%
    03:00 +18°C° 0 mm 0 mps 658 mmHg 96%
    04:00 +18°C° 0 mm 0 mps 659 mmHg 96%
    05:00 +18°C° 0 mm 0 mps 659 mmHg 95%
    06:00 +19°C° 0.1 mm 0 mps 659 mmHg 94%
    07:00 +20°C° 0.1 mm 0 mps 660 mmHg 93%
    08:00 +21°C° 0.1 mm 0 mps 661 mmHg 93%
    09:00 +22°C° 1.1 mm 0 mps 661 mmHg 87%
    10:00 +24°C° 1.1 mm 0 mps 661 mmHg 82%
    11:00 +26°C° 1.1 mm 0 mps 661 mmHg 76%
    12:00 +26°C° 1.6 mm 0 mps 661 mmHg 77%
    13:00 +28°C° 1.6 mm 1 mps 660 mmHg 78%
    14:00 +27°C° 1.6 mm 1 mps 659 mmHg 79%
    15:00 +27°C° 1.6 mm 1 mps 658 mmHg 82%
    16:00 +26°C° 1.6 mm 1 mps 658 mmHg 85%
    17:00 +26°C° 1.6 mm 1 mps 658 mmHg 88%
    18:00 +22°C° 0.3 mm 0 mps 658 mmHg 89%
    19:00 +21°C° 0.3 mm 0 mps 659 mmHg 89%
    20:00 +20°C° 0.3 mm 0 mps 659 mmHg 90%
    21:00 +20°C° 0.1 mm 0 mps 659 mmHg 91%
    22:00 +19°C° 0.1 mm 0 mps 659 mmHg 91%
    23:00 +21°C° 0.1 mm 1 mps 660 mmHg 91%

    28 January, Monday

    Time Temperature Precipitation Wind Pressure Humidity
    00:00 +21°C° 0.5 mm 1 mps 659 mmHg 93%
    01:00 +20°C° 0.5 mm 1 mps 659 mmHg 94%
    02:00 +20°C° 0.5 mm 1 mps 659 mmHg 96%
    03:00 +18°C° 0.3 mm 0 mps 659 mmHg 96%
    04:00 +18°C° 0.3 mm 0 mps 659 mmHg 96%
    05:00 +18°C° 0.3 mm 0 mps 659 mmHg 96%
    06:00 +18°C° 0.3 mm 0 mps 659 mmHg 95%
    07:00 +19°C° 0.3 mm 0 mps 660 mmHg 95%
    08:00 +20°C° 0.3 mm 0 mps 661 mmHg 94%
    09:00 +23°C° 0.6 mm 1 mps 661 mmHg 90%
    10:00 +24°C° 0.6 mm 1 mps 661 mmHg 86%
    11:00 +25°C° 0.6 mm 1 mps 661 mmHg 82%
    12:00 +26°C° 0.2 mm 1 mps 660 mmHg 78%
    13:00 +26°C° 0.2 mm 1 mps 660 mmHg 74%
    14:00 +27°C° 0.2 mm 1 mps 659 mmHg 69%
    15:00 +27°C° 0.1 mm 1 mps 659 mmHg 72%
    16:00 +27°C° 0.1 mm 1 mps 658 mmHg 74%
    17:00 +26°C° 0.1 mm 1 mps 658 mmHg 76%
    18:00 +25°C° 1.1 mm 1 mps 658 mmHg 82%
    19:00 +21°C° 1.1 mm 0 mps 658 mmHg 88%
    20:00 +19°C° 1.1 mm 0 mps 658 mmHg 93%
    21:00 +19°C° 1.9 mm 0 mps 659 mmHg 94%
    22:00 +19°C° 1.9 mm 0 mps 659 mmHg 94%
    23:00 +19°C° 1.9 mm 0 mps 660 mmHg 95%

    29 January, Tuesday

    Time Temperature Precipitation Wind Pressure Humidity
    00:00 +19°C° 1.3 mm 0 mps 659 mmHg 95%
    01:00 +18°C° 1.3 mm 0 mps 659 mmHg 94%
    02:00 +18°C° 1.3 mm 0 mps 658 mmHg 94%
    03:00 +20°C° 0.3 mm 1 mps 658 mmHg 94%
    04:00 +20°C° 0.3 mm 1 mps 658 mmHg 95%
    05:00 +20°C° 0.3 mm 1 mps 658 mmHg 95%
    06:00 +20°C° 0 mm 1 mps 659 mmHg 94%
    07:00 +21°C° 0 mm 1 mps 660 mmHg 93%
    08:00 +22°C° 0 mm 1 mps 660 mmHg 93%
    09:00 +23°C° 0 mm 1 mps 660 mmHg 86%
    10:00 +25°C° 0 mm 1 mps 660 mmHg 79%
    11:00 +26°C° 0 mm 1 mps 661 mmHg 73%
    12:00 +27°C° 0.2 mm 1 mps 660 mmHg 71%
    13:00 +27°C° 0.2 mm 1 mps 659 mmHg 70%
    14:00 +28°C° 0.2 mm 1 mps 659 mmHg 69%
    15:00 +28°C° 0.3 mm 1 mps 658 mmHg 71%
    16:00 +28°C° 0.3 mm 1 mps 658 mmHg 73%
    17:00 +28°C° 0.3 mm 1 mps 658 mmHg 75%
    18:00 +24°C° 1.5 mm 0 mps 658 mmHg 80%
    19:00 +22°C° 1.5 mm 0 mps 658 mmHg 85%
    20:00 +20°C° 1.5 mm 0 mps 658 mmHg 91%
    21:00 +20°C° 0.6 mm 0 mps 659 mmHg 91%
    22:00 +20°C° 0.6 mm 0 mps 659 mmHg 91%
    23:00 +20°C° 0.6 mm 0 mps 659 mmHg 92%
    Show more